Volver al catálogo

STARLINK-37269

ActivoComunicacionesSSO
NORAD 68621·PAYLOAD·🇺🇸 United States

Lanzado Apr 5, 2026 desde Vandenberg Space Force Base

Loading…

Próximos Pases (próximas 24 horas)

TLE

ActualizadoSource: CelesTrak SupGP

Época: Sep 14, 2026, 21:42 UTC

1 68621C 26073V   26257.90465278  .00080373  00000+0  24956-2 0  2579
2 68621  97.2849  95.9734 0001729  91.5733 193.5480 15.33389522    10

Sigue STARLINK-37269 en tiempo real con AllMySat

Download on the App Store